LXMCO LFBF-LFKJ

Flight info

Callsign LXMCO
Flight time 0h 57m
Altitude 34000
Route TLF DCT BUROX DCT FJR/N0438F330 Y25 SALIN Y341 BULTO UY342 PADKO DCT VAREK
Aircraft A319/M-SDE3FGHIRWY/LB1

Departure

Time 2026-04-29 22:24
Airport Toulouse-Francazal (BA 101) Air Base (LFBF)

Arrival

Time 2026-04-29 23:21
Airport Ajaccio Napoléon Bonaparte airport (LFKJ)
Time Latitude Longitude Altitude Speed Heading
2026-04-29 22:14 43.54271 1.36166 547 ft 0 kts 104°
2026-04-29 22:21 43.54269 1.36175 542 ft 2 kts 103°
2026-04-29 22:21 43.54276 1.36210 542 ft 4 kts 30°
2026-04-29 22:21 43.54311 1.36196 542 ft 6 kts 291°
2026-04-29 22:21 43.54344 1.36103 542 ft 13 kts 339°
2026-04-29 22:22 43.54434 1.36110 541 ft 14 kts
2026-04-29 22:22 43.54535 1.36122 542 ft 15 kts 359°
2026-04-29 22:22 43.54591 1.36013 545 ft 15 kts 294°
2026-04-29 22:22 43.54648 1.35847 544 ft 26 kts 294°
2026-04-29 22:23 43.54726 1.35652 542 ft 16 kts 328°
2026-04-29 22:23 43.54819 1.35672 542 ft 14 kts 27°
2026-04-29 22:23 43.54892 1.35754 534 ft 14 kts 84°
2026-04-29 22:23 43.54805 1.36019 540 ft 73 kts 115°
2026-04-29 22:24 43.54463 1.37042 755 ft 144 kts 116°
2026-04-29 22:24 43.53998 1.38412 1534 ft 168 kts 116°
2026-04-29 22:24 43.53474 1.39936 2347 ft 183 kts 116°
2026-04-29 22:24 43.52907 1.41584 3025 ft 197 kts 119°
2026-04-29 22:25 43.51891 1.42957 3603 ft 220 kts 159°
2026-04-29 22:25 43.50310 1.43080 4290 ft 248 kts 192°
2026-04-29 22:25 43.48671 1.42023 4977 ft 278 kts 220°
2026-04-29 22:25 43.47642 1.39738 6322 ft 281 kts 252°
2026-04-29 22:26 43.47636 1.37053 7673 ft 287 kts 284°
2026-04-29 22:26 43.48655 1.34685 8957 ft 293 kts 310°
2026-04-29 22:26 43.50133 1.32719 10205 ft 298 kts 317°
2026-04-29 22:26 43.51699 1.30811 11345 ft 303 kts 317°
2026-04-29 22:27 43.53299 1.28880 12486 ft 309 kts 317°
2026-04-29 22:27 43.54945 1.26898 13464 ft 323 kts 318°
2026-04-29 22:27 43.56726 1.24808 13945 ft 352 kts 321°
2026-04-29 22:27 43.59017 1.23324 14318 ft 370 kts 351°
2026-04-29 22:28 43.61531 1.23195 15911 ft 355 kts
2026-04-29 22:28 43.63878 1.23997 17427 ft 345 kts 23°
2026-04-29 22:28 43.65907 1.25716 18488 ft 344 kts 42°
2026-04-29 22:28 43.67405 1.28286 19301 ft 346 kts 63°
2026-04-29 22:29 43.68196 1.31411 20092 ft 346 kts 83°
2026-04-29 22:29 43.68257 1.34728 20883 ft 347 kts 95°
2026-04-29 22:29 43.68149 1.38077 21686 ft 351 kts 95°
2026-04-29 22:29 43.68047 1.41460 22474 ft 355 kts 95°
2026-04-29 22:30 43.67946 1.44884 23247 ft 359 kts 95°
2026-04-29 22:30 43.67845 1.48349 23936 ft 363 kts 95°
2026-04-29 22:30 43.67744 1.51848 24582 ft 366 kts 95°
2026-04-29 22:30 43.67643 1.55343 25209 ft 370 kts 95°
2026-04-29 22:31 43.67538 1.58905 25847 ft 373 kts 95°
2026-04-29 22:31 43.67428 1.62502 26488 ft 376 kts 95°
2026-04-29 22:31 43.67316 1.66126 27125 ft 380 kts 95°
2026-04-29 22:31 43.67204 1.69785 27758 ft 383 kts 95°
2026-04-29 22:32 43.67092 1.73485 28383 ft 387 kts 95°
2026-04-29 22:32 43.66976 1.77203 29003 ft 390 kts 95°
2026-04-29 22:32 43.66855 1.81011 29614 ft 393 kts 95°
2026-04-29 22:32 43.66703 1.84799 30176 ft 396 kts 99°
2026-04-29 22:33 43.66116 1.88502 30642 ft 396 kts 108°
2026-04-29 22:33 43.65417 1.92199 31107 ft 400 kts 108°
2026-04-29 22:33 43.64705 1.95937 31555 ft 404 kts 108°
2026-04-29 22:33 43.63986 1.99701 32029 ft 408 kts 108°
2026-04-29 22:34 43.63281 2.03400 33291 ft 385 kts 108°
2026-04-29 22:34 43.62616 2.06904 34415 ft 372 kts 108°
2026-04-29 22:34 43.61962 2.10333 35058 ft 368 kts 108°
2026-04-29 22:34 43.61304 2.13741 35576 ft 367 kts 108°
2026-04-29 22:35 43.60642 2.17146 36026 ft 368 kts 108°
2026-04-29 22:35 43.59969 2.20597 36142 ft 379 kts 108°
2026-04-29 22:35 43.59270 2.24175 36182 ft 392 kts 108°
2026-04-29 22:35 43.58550 2.27865 36210 ft 404 kts 108°
2026-04-29 22:36 43.57808 2.31663 36225 ft 416 kts 107°
2026-04-29 22:36 43.57046 2.35577 36253 ft 428 kts 107°
2026-04-29 22:36 43.56263 2.39587 36277 ft 438 kts 109°
2026-04-29 22:36 43.55479 2.43616 37018 ft 425 kts 107°
2026-04-29 22:37 43.54736 2.47478 38163 ft 411 kts 107°
2026-04-29 22:37 43.54003 2.51268 38652 ft 410 kts 108°
2026-04-29 22:37 43.53257 2.55072 38878 ft 413 kts 108°
2026-04-29 22:37 43.52495 2.58919 38986 ft 419 kts 108°
2026-04-29 22:38 43.51718 2.62827 39027 ft 428 kts 108°
2026-04-29 22:38 43.50110 2.70888 39037 ft 445 kts 107°
2026-04-29 22:39 43.48443 2.79263 39053 ft 461 kts 107°
2026-04-29 22:39 43.46733 2.87870 39054 ft 468 kts 107°
2026-04-29 22:40 43.44994 2.96583 39061 ft 469 kts 107°
2026-04-29 22:40 43.43259 3.05183 39061 ft 469 kts 107°
2026-04-29 22:41 43.41494 3.13892 39057 ft 470 kts 107°
2026-04-29 22:41 43.39740 3.22544 39062 ft 470 kts 107°
2026-04-29 22:42 43.37971 3.31213 39067 ft 471 kts 107°
2026-04-29 22:42 43.36191 3.39873 39071 ft 471 kts 107°
2026-04-29 22:43 43.34411 3.48542 39071 ft 472 kts 107°
2026-04-29 22:43 43.32620 3.57210 39076 ft 472 kts 107°
2026-04-29 22:44 43.30823 3.65878 39078 ft 472 kts 108°
2026-04-29 22:44 43.29015 3.74542 39082 ft 472 kts 108°
2026-04-29 22:45 43.27196 3.83191 39082 ft 472 kts 107°
2026-04-29 22:45 43.25381 3.91841 39084 ft 472 kts 107°
2026-04-29 22:46 43.23566 4.00504 39086 ft 472 kts 107°
2026-04-29 22:46 43.21740 4.09147 39084 ft 472 kts 108°
2026-04-29 22:47 43.19894 4.17783 39084 ft 472 kts 108°
2026-04-29 22:47 43.18033 4.26470 39083 ft 472 kts 107°
2026-04-29 22:48 43.16178 4.35101 39084 ft 472 kts 107°
2026-04-29 22:48 43.14320 4.43724 39087 ft 472 kts 107°
2026-04-29 22:49 43.12459 4.52346 39077 ft 472 kts 108°
2026-04-29 22:49 43.10588 4.60966 39079 ft 473 kts 107°
2026-04-29 22:50 43.08706 4.69601 39078 ft 473 kts 107°
2026-04-29 22:50 43.06821 4.78233 39080 ft 474 kts 107°
2026-04-29 22:51 43.04921 4.86856 39084 ft 474 kts 108°
2026-04-29 22:51 43.02058 4.99802 39083 ft 474 kts 107°
2026-04-29 22:52 43.00142 5.08430 39082 ft 475 kts 107°
2026-04-29 22:52 42.98219 5.17054 39083 ft 475 kts 107°
2026-04-29 22:53 42.96562 5.25764 39064 ft 474 kts 107°
2026-04-29 22:53 42.94494 5.34304 39074 ft 474 kts 109°
2026-04-29 22:54 42.92390 5.42839 39069 ft 475 kts 108°
2026-04-29 22:54 42.90727 5.50054 39068 ft 476 kts 107°
2026-04-29 22:55 42.88801 5.58699 39071 ft 476 kts 107°
2026-04-29 22:55 42.86857 5.67339 39063 ft 477 kts 108°
2026-04-29 22:56 42.84883 5.75973 39068 ft 477 kts 108°
2026-04-29 22:56 42.82893 5.84611 39068 ft 478 kts 108°
2026-04-29 22:57 42.80898 5.93251 39072 ft 479 kts 108°
2026-04-29 22:57 42.78889 6.01902 39071 ft 479 kts 108°
2026-04-29 22:58 42.76873 6.10555 39060 ft 479 kts 108°
2026-04-29 22:58 42.74856 6.19192 39062 ft 479 kts 108°
2026-04-29 22:59 42.72838 6.27817 39064 ft 478 kts 108°
2026-04-29 22:59 42.70806 6.36435 39065 ft 479 kts 108°
2026-04-29 23:00 42.68771 6.45054 39065 ft 478 kts 108°
2026-04-29 23:00 42.66723 6.53712 39068 ft 478 kts 108°
2026-04-29 23:01 42.64670 6.62316 39072 ft 478 kts 108°
2026-04-29 23:01 42.62610 6.70904 39077 ft 478 kts 108°
2026-04-29 23:02 42.60553 6.79486 39076 ft 478 kts 108°
2026-04-29 23:02 42.58492 6.88062 38879 ft 477 kts 108°
2026-04-29 23:03 42.57460 6.92331 38631 ft 475 kts 109°
2026-04-29 23:03 42.56427 6.96584 38113 ft 476 kts 109°
2026-04-29 23:03 42.55389 7.00858 37201 ft 478 kts 108°
2026-04-29 23:03 42.54352 7.05135 36414 ft 476 kts 108°
2026-04-29 23:04 42.53315 7.09413 35497 ft 478 kts 108°
2026-04-29 23:04 42.52277 7.13677 34747 ft 475 kts 108°
2026-04-29 23:04 42.51241 7.17922 33849 ft 475 kts 108°
2026-04-29 23:04 42.50200 7.22179 32794 ft 476 kts 108°
2026-04-29 23:05 42.49156 7.26438 31666 ft 478 kts 108°
2026-04-29 23:05 42.48107 7.30717 30492 ft 481 kts 108°
2026-04-29 23:05 42.47053 7.35003 28759 ft 478 kts 108°
2026-04-29 23:05 42.45995 7.39294 26587 ft 482 kts 108°
2026-04-29 23:06 42.44926 7.43614 24497 ft 485 kts 108°
2026-04-29 23:06 42.43855 7.47926 22851 ft 479 kts 108°
2026-04-29 23:06 42.42814 7.52116 21716 ft 460 kts 108°
2026-04-29 23:06 42.41799 7.56190 20670 ft 456 kts 109°
2026-04-29 23:07 42.40786 7.60249 19609 ft 453 kts 109°
2026-04-29 23:07 42.39779 7.64287 18579 ft 452 kts 109°
2026-04-29 23:07 42.38777 7.68304 17479 ft 450 kts 108°
2026-04-29 23:07 42.37770 7.72339 16500 ft 444 kts 108°
2026-04-29 23:08 42.36801 7.76222 15615 ft 439 kts 108°
2026-04-29 23:08 42.35831 7.80109 14700 ft 435 kts 108°
2026-04-29 23:08 42.34848 7.84032 13761 ft 433 kts 108°
2026-04-29 23:08 42.33887 7.87846 12893 ft 426 kts 108°
2026-04-29 23:09 42.32933 7.91609 12113 ft 419 kts 108°
2026-04-29 23:09 42.31992 7.95320 11339 ft 413 kts 108°
2026-04-29 23:09 42.31080 7.98889 11196 ft 389 kts 109°
2026-04-29 23:09 42.30156 8.02207 11070 ft 366 kts 111°
2026-04-29 23:10 42.29230 8.05304 10950 ft 346 kts 112°
2026-04-29 23:10 42.28326 8.08232 10824 ft 329 kts 112°
2026-04-29 23:10 42.27462 8.11015 10708 ft 315 kts 112°
2026-04-29 23:10 42.26637 8.13697 10491 ft 305 kts 111°
2026-04-29 23:11 42.25837 8.16318 10253 ft 300 kts 111°
2026-04-29 23:11 42.25049 8.18915 10016 ft 298 kts 111°
2026-04-29 23:11 42.24267 8.21496 9846 ft 297 kts 111°
2026-04-29 23:11 42.23487 8.24080 9715 ft 297 kts 111°
2026-04-29 23:12 42.22711 8.26657 9579 ft 296 kts 111°
2026-04-29 23:12 42.21937 8.29227 9223 ft 295 kts 111°
2026-04-29 23:12 42.21166 8.31781 8809 ft 293 kts 112°
2026-04-29 23:12 42.20399 8.34315 8394 ft 291 kts 112°
2026-04-29 23:13 42.19640 8.36828 8035 ft 288 kts 112°
2026-04-29 23:13 42.18885 8.39326 7980 ft 288 kts 112°
2026-04-29 23:13 42.18128 8.41822 7632 ft 286 kts 112°
2026-04-29 23:13 42.17375 8.44305 6868 ft 286 kts 112°
2026-04-29 23:14 42.16624 8.46770 6362 ft 282 kts 113°
2026-04-29 23:14 42.15655 8.49042 5939 ft 279 kts 129°
2026-04-29 23:14 42.14289 8.50871 5650 ft 277 kts 141°
2026-04-29 23:14 42.12806 8.52524 5363 ft 277 kts 141°
2026-04-29 23:15 42.11332 8.54176 5076 ft 275 kts 141°
2026-04-29 23:15 42.09866 8.55824 4782 ft 274 kts 141°
2026-04-29 23:15 42.08407 8.57466 4486 ft 273 kts 140°
2026-04-29 23:15 42.06959 8.59095 4199 ft 267 kts 140°
2026-04-29 23:16 42.05557 8.60671 3922 ft 258 kts 140°
2026-04-29 23:16 42.04184 8.62213 3652 ft 250 kts 140°
2026-04-29 23:16 42.02870 8.63686 3393 ft 242 kts 140°
2026-04-29 23:16 42.01630 8.65170 3138 ft 236 kts 131°
2026-04-29 23:17 42.00804 8.67012 3010 ft 225 kts 111°
2026-04-29 23:17 42.00468 8.68993 2998 ft 210 kts 99°
2026-04-29 23:17 42.00232 8.70855 3031 ft 192 kts 100°
2026-04-29 23:17 42.00009 8.72556 3014 ft 178 kts 99°
2026-04-29 23:18 41.99795 8.74171 2868 ft 177 kts 100°
2026-04-29 23:18 41.99577 8.75811 2551 ft 177 kts 100°
2026-04-29 23:18 41.99353 8.77412 2265 ft 168 kts 101°
2026-04-29 23:18 41.99160 8.78833 2052 ft 145 kts 99°
2026-04-29 23:19 41.98991 8.80117 1762 ft 134 kts 99°
2026-04-29 23:19 41.98717 8.81263 1534 ft 126 kts 116°
2026-04-29 23:19 41.98169 8.82147 1302 ft 123 kts 141°
2026-04-29 23:19 41.97417 8.82667 1135 ft 123 kts 163°
2026-04-29 23:20 41.96571 8.82730 941 ft 123 kts 188°
2026-04-29 23:20 41.95764 8.82359 730 ft 123 kts 204°
2026-04-29 23:20 41.94994 8.81862 556 ft 122 kts 204°
2026-04-29 23:20 41.94223 8.81374 385 ft 123 kts 203°
2026-04-29 23:21 41.93442 8.80904 220 ft 124 kts 203°
2026-04-29 23:21 41.92669 8.80419 29 ft 115 kts 204°
2026-04-29 23:21 41.92070 8.80049 20 ft 71 kts 205°
2026-04-29 23:21 41.91726 8.79828 16 ft 49 kts 205°
2026-04-29 23:22 41.91421 8.79638 20 ft 48 kts 205°
2026-04-29 23:22 41.91256 8.79535 23 ft 13 kts 204°
2026-04-29 23:22 41.91248 8.79435 23 ft 16 kts 317°
2026-04-29 23:22 41.91356 8.79354 26 ft 18 kts 335°
2026-04-29 23:23 41.91479 8.79344 26 ft 19 kts 25°
2026-04-29 23:23 41.91606 8.79423 26 ft 21 kts 24°
2026-04-29 23:23 41.91746 8.79510 26 ft 23 kts 24°
2026-04-29 23:23 41.91901 8.79605 26 ft 23 kts 27°
2026-04-29 23:24 41.91937 8.79591 26 ft 6 kts 297°
2026-04-29 23:24 41.91954 8.79577 26 ft 1 kts 353°
2026-04-29 23:24 41.91955 8.79577 26 ft 0 kts 351°
2026-04-29 23:24 41.91957 8.79576 26 ft 0 kts 345°